Bloomington, IN

3:47 AM EST on February 21, 2017 (GMT -0500)
Monroe County

Weather History for KBMG - December, 2013

Change the Weather History Date:

Wednesday, December 4, 2013

  Actual Average Record
Temperature  
Mean Temperature 54 °F 36 °F  
Max Temperature 65 °F 44 °F 69 °F (1998)
Min Temperature 42 °F 27 °F 12 °F (2006)
Degree Days  
Heating Degree Days 11 29  
Month to date heating degree days 82 115  
Since 1 July heating degree days 1222 1171  
Cooling Degree Days 0 0  
Month to date cooling degree days 0 0  
Year to date cooling degree days 1006 927  
Growing Degree Days 3 (Base 50)    
Moisture  
Dew Point 52 °F    
Average Humidity 86    
Maximum Humidity 100    
Minimum Humidity 72    
Precipitation  
Precipitation T in 0.10 in 0.48 in (2011)
Month to date precipitation T 0.41  
Year to date precipitation 40.87 44.42  
Sea Level Pressure  
Sea Level Pressure 29.73 in    
Wind  
Wind Speed 8 mph (SSE)    
Max Wind Speed 15 mph    
Max Gust Speed 20 mph    
Visibility 4 miles    
Events Fog , Rain    
T = Trace of Precipitation, MM = Missing Value Source: NWS Daily Summary

Daily Weather History Graph

Daily Weather History Graph

Search for Another Location

Airport or City:

Trip Planner

Search our weather history database for the weather conditions in past years. The results will help you decide how hot, cold, wet, or windy it might be!

Date:

Astronomy

Dec. 04, 2013 Rise Set
Actual Time 7:49 AM EST 5:23 PM EST
Civil Twilight 7:20 AM EST 5:53 PM EST
Nautical Twilight 6:46 AM EST 6:26 PM EST
Astronomical Twilight 6:14 AM EST 6:59 PM EST
Moon 9:17 AM EST (12/4) 7:33 PM EST (12/4)
Length of Visible Light 10h 33m
Length of Day
9h 33m
Waxing Crescent, 4% of the Moon is Illuminated
Dec 4
Waxing Crescent
Dec 9
First Quarter
Dec 17
Full
Dec 25
Last Quarter
Jan 1
New

Hourly Weather History & Observations

Time (EST) Temp. Windchill Dew Point Humidity Pressure Visibility Wind Dir Wind Speed Gust Speed Precip Events Conditions
12:16 AM 42.1 °F 38.4 °F 41.0 °F 96% 29.78 in 0.8 mi SE 5.8 mph - N/A   Mist
12:23 AM 44.1 °F 42.5 °F 42.1 °F 93% 29.78 in 1.2 mi SSE 3.5 mph - N/A   Scattered Clouds
12:53 AM 46.0 °F 44.8 °F 45.0 °F 96% 29.77 in 2.0 mi SE 3.5 mph - N/A   Scattered Clouds
1:04 AM 45.0 °F 42.6 °F 44.1 °F 97% 29.77 in 1.8 mi SSE 4.6 mph - N/A   Mostly Cloudy
1:15 AM 46.9 °F - 45.0 °F 93% 29.77 in 2.5 mi South 4.6 mph - N/A   Mostly Cloudy
1:22 AM 46.9 °F - 46.0 °F 97% 29.77 in 3.0 mi South 4.6 mph - N/A   Mostly Cloudy
1:53 AM 48.0 °F - 46.0 °F 93% 29.78 in 4.0 mi SSE 6.9 mph - N/A   Overcast
2:53 AM 48.9 °F - 46.9 °F 93% 29.79 in 4.0 mi SE 6.9 mph - N/A   Overcast
3:53 AM 50.0 °F - 48.0 °F 93% 29.79 in 3.0 mi SE 9.2 mph - N/A   Overcast
4:20 AM 50.0 °F - 48.0 °F 93% 29.78 in 2.5 mi SE 6.9 mph - N/A   Overcast
4:34 AM 50.0 °F - 48.0 °F 93% 29.78 in 3.0 mi SE 8.1 mph - N/A   Overcast
4:44 AM 50.0 °F - 48.0 °F 93% 29.78 in 2.5 mi SE 6.9 mph - N/A   Overcast
4:53 AM 50.0 °F - 48.0 °F 93% 29.78 in 2.5 mi SE 6.9 mph - N/A   Overcast
5:05 AM 50.0 °F - 48.0 °F 93% 29.77 in 1.5 mi SSE 6.9 mph - N/A   Overcast
5:26 AM 50.0 °F - 48.0 °F 93% 29.77 in 0.8 mi SE 5.8 mph - N/A   Overcast
5:53 AM 50.0 °F - 48.9 °F 96% 29.78 in 0.2 mi SSE 6.9 mph - N/A Fog Fog
6:53 AM 50.0 °F - 48.9 °F 96% 29.78 in 0.2 mi SE 8.1 mph - N/A Fog Fog
7:00 AM 50.0 °F - 48.9 °F 96% 29.78 in 0.5 mi SE 6.9 mph - N/A Fog Fog
7:32 AM 51.1 °F - 50.0 °F 96% 29.80 in 1.2 mi SSE 10.4 mph - N/A   Overcast
7:53 AM 51.1 °F - 50.0 °F 96% 29.79 in 1.2 mi SE 8.1 mph - N/A   Overcast
8:29 AM 51.1 °F - 50.0 °F 96% 29.78 in 0.5 mi SE 9.2 mph - N/A Fog Fog
8:39 AM 51.1 °F - 50.0 °F 96% 29.79 in 0.2 mi ESE 9.2 mph - N/A Fog Fog
8:53 AM 51.1 °F - 50.0 °F 96% 29.79 in 0.2 mi SE 9.2 mph - N/A Fog Fog
9:53 AM 52.0 °F - 51.1 °F 97% 29.79 in 0.2 mi SE 8.1 mph - 0.00 in Fog , Rain Light Rain
10:51 AM 53.6 °F - 51.8 °F 94% 29.76 in 0.5 mi SE 11.5 mph - 0.00 in Fog Fog
10:53 AM 53.1 °F - 52.0 °F 96% 29.76 in 0.5 mi SE 11.5 mph - 0.00 in Fog Fog
11:06 AM 53.1 °F - 52.0 °F 96% 29.76 in 1.0 mi SE 10.4 mph - N/A   Overcast
11:21 AM 54.0 °F - 53.1 °F 97% 29.75 in 0.5 mi SE 10.4 mph - N/A Fog Fog
11:44 AM 54.0 °F - 53.1 °F 97% 29.74 in 0.2 mi SSE 11.5 mph - N/A Fog Fog
11:53 AM 54.0 °F - 53.1 °F 97% 29.73 in 0.2 mi SSE 10.4 mph - N/A Fog Fog
12:53 PM 55.9 °F - 55.0 °F 97% 29.70 in 0.2 mi SSE 9.2 mph - N/A Fog Fog
1:26 PM 57.0 °F - 55.9 °F 96% 29.68 in 0.5 mi SSE 10.4 mph - N/A Fog Fog
1:45 PM 57.0 °F - 55.9 °F 96% 29.68 in 1.2 mi SSE 8.1 mph - N/A   Overcast
1:53 PM 57.9 °F - 55.9 °F 93% 29.68 in 2.0 mi SSE 8.1 mph - N/A   Overcast
2:03 PM 57.9 °F - 57.0 °F 97% 29.68 in 2.5 mi SSE 8.1 mph - N/A   Overcast
2:11 PM 57.9 °F - 57.0 °F 97% 29.67 in 2.5 mi SSE 8.1 mph - N/A   Overcast
2:33 PM 59.0 °F - 57.0 °F 93% 29.65 in 3.0 mi SSE 8.1 mph - N/A   Overcast
2:50 PM 59.0 °F - 57.2 °F 94% 29.65 in 3.0 mi SSE 9.2 mph - N/A   Overcast
2:53 PM 59.0 °F - 57.9 °F 96% 29.65 in 3.0 mi SSE 8.1 mph - N/A   Overcast
3:53 PM 62.1 °F - 57.9 °F 86% 29.63 in 8.0 mi South 8.1 mph - N/A   Mostly Cloudy
4:10 PM 63.0 °F - 57.9 °F 84% 29.64 in 9.0 mi South 9.2 mph - N/A   Overcast
4:53 PM 62.1 °F - 57.0 °F 84% 29.64 in 9.0 mi South 10.4 mph - N/A   Mostly Cloudy
5:53 PM 61.0 °F - 54.0 °F 78% 29.65 in 10.0 mi South 6.9 mph - N/A   Clear
6:53 PM 57.0 °F - 53.1 °F 87% 29.66 in 10.0 mi South 4.6 mph - N/A   Clear
7:53 PM 54.0 °F - 53.1 °F 97% 29.69 in 7.0 mi South 3.5 mph - N/A   Mostly Cloudy
8:53 PM 62.1 °F - 54.0 °F 75% 29.69 in 10.0 mi SSW 10.4 mph - N/A   Mostly Cloudy
9:53 PM 64.0 °F - 55.0 °F 73% 29.70 in 10.0 mi SW 9.2 mph - N/A   Mostly Cloudy
10:32 PM 64.0 °F - 55.0 °F 73% 29.72 in 10.0 mi SW 10.4 mph - N/A   Overcast
10:53 PM 64.0 °F - 55.0 °F 73% 29.72 in 10.0 mi WSW 10.4 mph - N/A   Overcast
11:05 PM 64.0 °F - 55.0 °F 73% 29.73 in 10.0 mi SW 9.2 mph - N/A   Overcast
11:16 PM 64.0 °F - 55.0 °F 73% 29.73 in 10.0 mi SW 10.4 mph - N/A   Overcast
11:53 PM 64.0 °F - 55.9 °F 75% 29.73 in 10.0 mi SW 9.2 mph - N/A   Overcast